Time,TemperatureF,DewpointF,PressureIn,WindDirection,WindDirectionDegrees,WindSpeedMPH,WindSpeedGustMPH,Humidity,HourlyPrecipIn,Conditions,Clouds,dailyrainin,SoftwareType,DateUTC
2013-06-18 00:04:00,63.7,62.2,29.84,NE,40,0.0,0.0,95,0.00,,OVC095,-99.99,VWS V12.07,2013-06-18 04:04:00,
2013-06-18 00:05:00,63.2,61.8,29.84,NE,40,0.0,0.0,95,0.00,,OVC095,-99.99,VWS V12.07,2013-06-18 04:05:00,
2013-06-18 00:13:00,63.2,62.0,29.84,NE,40,0.0,0.0,96,0.00,,OVC095,-99.99,VWS V12.07,2013-06-18 04:13:00,
2013-06-18 00:23:00,63.4,62.2,29.84,NE,40,0.0,0.0,96,0.00,,OVC095,-99.99,VWS V12.07,2013-06-18 04:23:00,
2013-06-18 00:31:00,63.4,62.2,29.84,NE,40,0.0,0.0,96,0.00,,OVC095,-99.99,VWS V12.07,2013-06-18 04:31:00,
2013-06-18 00:43:00,63.4,62.2,29.84,NE,40,0.0,0.0,96,0.00,,OVC095,-99.99,VWS V12.07,2013-06-18 04:43:00,
2013-06-18 00:53:00,63.9,62.7,29.85,NE,40,0.0,1.0,96,0.00,,OVC095,-99.99,VWS V12.07,2013-06-18 04:53:00,
2013-06-18 01:04:00,63.7,62.5,29.84,NE,40,0.0,0.0,96,0.00,,OVC095,-99.99,VWS V12.07,2013-06-18 05:04:00,
2013-06-18 01:12:00,63.5,62.3,29.84,NE,40,0.0,0.0,96,0.00,,OVC095,-99.99,VWS V12.07,2013-06-18 05:12:00,
2013-06-18 01:23:00,63.4,62.2,29.84,NE,40,0.0,0.0,96,0.00,,OVC095,-99.99,VWS V12.07,2013-06-18 05:23:00,
2013-06-18 01:34:00,63.1,61.9,29.84,NE,40,0.0,0.0,96,0.00,,OVC095,-99.99,VWS V12.07,2013-06-18 05:34:00,
2013-06-18 01:43:00,62.9,61.8,29.84,NE,40,0.0,0.0,96,0.00,,OVC095,-99.99,VWS V12.07,2013-06-18 05:43:00,
2013-06-18 01:53:00,62.6,61.5,29.84,NE,40,0.0,0.0,96,0.00,,OVC095,-99.99,VWS V12.07,2013-06-18 05:53:00,
2013-06-18 02:05:00,63.1,61.9,29.84,NE,40,0.0,0.0,96,0.00,,OVC095,-99.99,VWS V12.07,2013-06-18 06:05:00,
2013-06-18 02:13:00,62.3,61.2,29.84,NE,40,0.0,0.0,96,0.00,,OVC095,-99.99,VWS V12.07,2013-06-18 06:13:00,
2013-06-18 02:23:00,62.0,60.8,29.84,NE,40,0.0,0.0,96,0.00,,OVC095,-99.99,VWS V12.07,2013-06-18 06:23:00,
2013-06-18 02:34:00,61.8,60.7,29.83,NE,40,0.0,0.0,96,0.00,,OVC095,-99.99,VWS V12.07,2013-06-18 06:34:00,
2013-06-18 02:43:00,61.6,60.5,29.83,NE,40,0.0,0.0,96,0.00,,OVC095,-99.99,VWS V12.07,2013-06-18 06:43:00,
2013-06-18 02:53:00,61.5,60.3,29.83,NE,40,0.0,0.0,96,0.00,,OVC095,-99.99,VWS V12.07,2013-06-18 06:53:00,
2013-06-18 03:04:00,61.5,60.6,29.82,NE,40,0.0,0.0,97,0.00,,OVC095,-99.99,VWS V12.07,2013-06-18 07:04:00,
2013-06-18 03:13:00,61.2,60.0,29.82,NE,40,0.0,0.0,96,0.00,,OVC095,-99.99,VWS V12.07,2013-06-18 07:13:00,
2013-06-18 03:23:00,61.0,59.9,29.81,NE,40,0.0,0.0,96,0.00,,OVC095,-99.99,VWS V12.07,2013-06-18 07:23:00,
2013-06-18 03:34:00,60.7,59.6,29.82,NE,40,0.0,0.0,96,0.00,,OVC095,-99.99,VWS V12.07,2013-06-18 07:34:00,
2013-06-18 03:43:00,60.7,59.6,29.82,NE,40,0.0,0.0,96,0.00,,OVC095,-99.99,VWS V12.07,2013-06-18 07:43:00,
2013-06-18 03:52:00,60.5,59.7,29.82,NE,40,0.0,0.0,97,0.00,,OVC095,-99.99,VWS V12.07,2013-06-18 07:52:00,
2013-06-18 04:04:00,60.4,59.5,29.82,NE,40,0.0,0.0,97,0.00,,OVC095,-99.99,VWS V12.07,2013-06-18 08:04:00,
2013-06-18 04:13:00,60.4,59.5,29.82,NE,40,0.0,0.0,97,0.00,,OVC095,-99.99,VWS V12.07,2013-06-18 08:13:00,
2013-06-18 04:23:00,60.2,59.3,29.82,NE,40,0.0,0.0,97,0.00,,OVC095,-99.99,VWS V12.07,2013-06-18 08:23:00,
2013-06-18 04:34:00,60.1,59.2,29.81,NE,40,0.0,0.0,97,0.00,,OVC095,-99.99,VWS V12.07,2013-06-18 08:34:00,
2013-06-18 04:43:00,60.1,59.2,29.81,NE,40,0.0,0.0,97,0.00,,OVC095,-99.99,VWS V12.07,2013-06-18 08:43:00,
2013-06-18 04:53:00,60.1,59.2,29.82,NE,40,0.0,0.0,97,0.00,,OVC095,-99.99,VWS V12.07,2013-06-18 08:53:00,
2013-06-18 05:04:00,60.1,59.2,29.82,NE,40,0.0,0.0,97,0.00,,OVC095,-99.99,VWS V12.07,2013-06-18 09:04:00,
2013-06-18 05:13:00,59.9,59.0,29.82,NE,40,0.0,0.0,97,0.00,,OVC095,-99.99,VWS V12.07,2013-06-18 09:13:00,
2013-06-18 05:23:00,59.6,58.8,29.82,NE,40,0.0,0.0,97,0.00,,OVC095,-99.99,VWS V12.07,2013-06-18 09:23:00,
2013-06-18 05:34:00,59.5,58.7,29.83,NE,40,0.0,0.0,97,0.00,,OVC095,-99.99,VWS V12.07,2013-06-18 09:34:00,
2013-06-18 05:43:00,59.3,58.5,29.83,NE,40,0.0,0.0,97,0.00,,OVC095,-99.99,VWS V12.07,2013-06-18 09:43:00,
2013-06-18 05:53:00,59.2,58.3,29.83,NE,40,0.0,0.0,97,0.00,,OVC095,-99.99,VWS V12.07,2013-06-18 09:53:00,
2013-06-18 06:04:00,60.1,59.2,29.84,NE,40,0.0,0.0,97,0.00,,OVC095,-99.99,VWS V12.07,2013-06-18 10:04:00,
2013-06-18 06:13:00,59.6,58.8,29.84,NE,40,0.0,0.0,97,0.00,,OVC095,-99.99,VWS V12.07,2013-06-18 10:13:00,
2013-06-18 06:23:00,59.6,58.8,29.84,NE,40,0.0,0.0,97,0.00,,OVC095,-99.99,VWS V12.07,2013-06-18 10:23:00,
2013-06-18 06:34:00,59.9,59.3,29.84,NE,40,0.0,0.0,98,0.00,,OVC095,-99.99,VWS V12.07,2013-06-18 10:34:00,
2013-06-18 06:43:00,60.2,59.6,29.84,NE,40,0.0,0.0,98,0.00,,OVC095,-99.99,VWS V12.07,2013-06-18 10:43:00,
2013-06-18 06:53:00,60.9,60.3,29.84,NE,40,0.0,0.0,98,0.00,,OVC095,-99.99,VWS V12.07,2013-06-18 10:53:00,
2013-06-18 07:04:00,61.2,60.6,29.84,NE,40,0.0,0.0,98,0.00,,OVC095,-99.99,VWS V12.07,2013-06-18 11:04:00,
2013-06-18 07:12:00,61.5,60.9,29.84,NE,40,0.0,0.0,98,0.00,,OVC095,-99.99,VWS V12.07,2013-06-18 11:12:00,
2013-06-18 07:23:00,62.4,61.8,29.85,NE,40,0.0,0.0,98,0.00,,OVC095,-99.99,VWS V12.07,2013-06-18 11:23:00,
2013-06-18 07:34:00,62.0,61.7,29.85,NE,40,0.0,0.0,99,0.00,,OVC095,-99.99,VWS V12.07,2013-06-18 11:34:00,
2013-06-18 07:43:00,62.1,61.5,29.85,NE,40,0.0,0.0,98,0.00,,OVC095,-99.99,VWS V12.07,2013-06-18 11:43:00,
2013-06-18 07:53:00,62.4,61.8,29.85,NE,40,0.0,0.0,98,0.00,,OVC095,-99.99,VWS V12.07,2013-06-18 11:53:00,
2013-06-18 08:04:00,62.4,62.1,29.85,NE,49,0.0,0.0,99,0.00,,OVC095,-99.99,VWS V12.07,2013-06-18 12:04:00,
2013-06-18 08:13:00,63.2,62.6,29.85,NE,49,0.0,0.0,98,0.00,,OVC095,-99.99,VWS V12.07,2013-06-18 12:13:00,
2013-06-18 08:23:00,62.6,62.0,29.85,South,175,0.0,0.0,98,0.00,,OVC095,-99.99,VWS V12.07,2013-06-18 12:23:00,
2013-06-18 08:34:00,63.1,62.5,29.86,South,175,0.0,0.0,98,0.00,,OVC095,-99.99,VWS V12.07,2013-06-18 12:34:00,
2013-06-18 08:43:00,63.2,62.6,29.86,South,175,0.0,1.0,98,0.00,,OVC095,-99.99,VWS V12.07,2013-06-18 12:43:00,
2013-06-18 08:53:00,63.4,62.8,29.86,South,175,0.0,1.0,98,0.00,,OVC095,-99.99,VWS V12.07,2013-06-18 12:53:00,
2013-06-18 09:04:00,63.4,62.8,29.86,South,169,0.0,1.0,98,0.00,,OVC095,-99.99,VWS V12.07,2013-06-18 13:04:00,
2013-06-18 09:13:00,63.5,62.9,29.86,South,171,0.0,1.0,98,0.00,,OVC095,-99.99,VWS V12.07,2013-06-18 13:13:00,
2013-06-18 09:23:00,63.7,63.1,29.86,South,171,0.0,1.0,98,0.00,,OVC095,-99.99,VWS V12.07,2013-06-18 13:23:00,
2013-06-18 09:34:00,63.9,63.3,29.86,South,171,0.0,0.0,98,0.00,,OVC095,-99.99,VWS V12.07,2013-06-18 13:34:00,
2013-06-18 09:43:00,64.7,64.4,29.86,South,169,0.0,0.0,99,0.00,,OVC095,-99.99,VWS V12.07,2013-06-18 13:43:00,
2013-06-18 09:53:00,64.0,63.4,29.86,South,171,0.0,0.0,98,0.00,,OVC095,-99.99,VWS V12.07,2013-06-18 13:53:00,
2013-06-18 10:05:00,64.8,64.2,29.85,South,171,0.0,0.0,98,0.00,,OVC095,-99.99,VWS V12.07,2013-06-18 14:05:00,
2013-06-18 10:13:00,64.3,63.7,29.85,South,171,0.0,0.0,98,0.00,,OVC095,-99.99,VWS V12.07,2013-06-18 14:13:00,
2013-06-18 10:23:00,64.5,63.6,29.86,South,171,0.0,0.0,97,0.00,,OVC095,-99.99,VWS V12.07,2013-06-18 14:23:00,
2013-06-18 10:34:00,64.8,63.9,29.84,South,171,0.0,0.0,97,0.00,,OVC095,-99.99,VWS V12.07,2013-06-18 14:34:00,
2013-06-18 10:43:00,65.6,64.7,29.84,South,171,0.0,0.0,97,0.00,,OVC095,-99.99,VWS V12.07,2013-06-18 14:43:00,
2013-06-18 10:53:00,65.6,64.4,29.84,South,171,0.0,0.0,96,0.00,,OVC095,-99.99,VWS V12.07,2013-06-18 14:53:00,
2013-06-18 11:04:00,66.8,65.0,29.84,SSE,167,0.0,2.0,94,0.00,,OVC095,-99.99,VWS V12.07,2013-06-18 15:04:00,
2013-06-18 11:13:00,67.8,65.7,29.84,SSE,167,0.0,2.0,93,0.00,,OVC095,-99.99,VWS V12.07,2013-06-18 15:13:00,
2013-06-18 11:23:00,68.8,66.4,29.84,SSE,167,0.0,2.0,92,0.00,,OVC095,-99.99,VWS V12.07,2013-06-18 15:23:00,
2013-06-18 11:34:00,69.1,66.1,29.83,SE,137,0.0,0.0,90,0.00,,OVC095,-99.99,VWS V12.07,2013-06-18 15:34:00,
2013-06-18 11:43:00,69.9,65.2,29.83,SE,137,0.0,0.0,85,0.00,,OVC095,-99.99,VWS V12.07,2013-06-18 15:43:00,
2013-06-18 11:53:00,70.8,65.7,29.83,South,188,2.0,2.0,84,0.00,,OVC095,-99.99,VWS V12.07,2013-06-18 15:53:00,
2013-06-18 12:05:00,71.6,66.2,29.82,South,186,0.0,0.0,83,0.00,,OVC095,-99.99,VWS V12.07,2013-06-18 16:05:00,
2013-06-18 12:13:00,71.8,66.4,29.82,SSE,167,0.0,3.0,83,0.00,,OVC095,-99.99,VWS V12.07,2013-06-18 16:13:00,
2013-06-18 12:23:00,72.8,65.9,29.83,ESE,120,0.0,6.0,79,0.00,,OVC095,-99.99,VWS V12.07,2013-06-18 16:23:00,
2013-06-18 12:34:00,73.0,66.1,29.83,North,10,1.0,6.0,79,0.00,,OVC095,-99.99,VWS V12.07,2013-06-18 16:34:00,
2013-06-18 12:43:00,72.7,65.8,29.83,NNE,25,0.0,6.0,79,0.00,,OVC095,-99.99,VWS V12.07,2013-06-18 16:43:00,
2013-06-18 12:53:00,71.6,65.1,29.83,ENE,65,0.0,6.0,80,0.00,,OVC095,-99.99,VWS V12.07,2013-06-18 16:53:00,
2013-06-18 13:04:00,71.1,64.3,29.83,SSE,152,0.0,1.0,79,0.00,,OVC095,-99.99,VWS V12.07,2013-06-18 17:04:00,
2013-06-18 13:13:00,70.8,64.7,29.83,ENE,59,0.0,2.0,81,0.00,,OVC095,-99.99,VWS V12.07,2013-06-18 17:13:00,
2013-06-18 13:23:00,70.4,63.2,29.82,SSE,160,3.0,3.0,78,0.00,,OVC095,-99.99,VWS V12.07,2013-06-18 17:23:00,
2013-06-18 13:34:00,70.3,63.5,29.82,SSE,160,0.0,3.0,79,0.00,,OVC095,-99.99,VWS V12.07,2013-06-18 17:34:00,
2013-06-18 13:43:00,69.6,63.2,29.82,WNW,288,0.0,3.0,80,0.00,,OVC095,-99.99,VWS V12.07,2013-06-18 17:43:00,
2013-06-18 13:53:00,68.6,61.8,29.81,South,188,0.0,8.0,79,0.00,,OVC095,-99.99,VWS V12.07,2013-06-18 17:53:00,
2013-06-18 14:05:00,68.3,62.9,29.81,East,85,2.0,2.0,83,0.00,,OVC095,-99.99,VWS V12.07,2013-06-18 18:05:00,
2013-06-18 14:13:00,68.9,63.5,29.81,SE,145,0.0,3.0,83,0.00,,OVC095,-99.99,VWS V12.07,2013-06-18 18:13:00,
2013-06-18 14:23:00,68.9,63.5,29.81,SSE,161,1.0,3.0,83,0.00,,OVC095,-99.99,VWS V12.07,2013-06-18 18:23:00,
2013-06-18 14:33:00,68.4,63.0,29.81,East,99,1.0,2.0,83,0.00,,OVC095,-99.99,VWS V12.07,2013-06-18 18:33:00,
2013-06-18 14:43:00,68.3,62.9,29.81,North,352,0.0,3.0,83,0.00,,OVC095,-99.99,VWS V12.07,2013-06-18 18:43:00,
2013-06-18 14:53:00,67.1,62.5,29.82,South,182,1.0,3.0,85,0.00,,OVC095,-99.99,VWS V12.07,2013-06-18 18:53:00,
2013-06-18 15:04:00,66.8,62.8,29.82,SE,145,0.0,0.0,87,0.00,,OVC095,-99.99,VWS V12.07,2013-06-18 19:04:00,
2013-06-18 15:13:00,65.5,62.2,29.82,South,179,0.0,0.0,89,0.00,,OVC095,-99.99,VWS V12.07,2013-06-18 19:13:00,
2013-06-18 15:23:00,65.8,62.8,29.81,ESE,123,0.0,1.0,90,0.00,,OVC095,-99.99,VWS V12.07,2013-06-18 19:23:00,
2013-06-18 15:34:00,64.8,61.8,29.81,South,179,0.0,0.0,90,0.00,,OVC095,-99.99,VWS V12.07,2013-06-18 19:34:00,
2013-06-18 15:43:00,65.2,62.5,29.81,South,179,0.0,0.0,91,0.00,,OVC095,-99.99,VWS V12.07,2013-06-18 19:43:00,
2013-06-18 15:52:00,64.3,62.2,29.81,SSE,157,0.0,0.0,93,0.00,,OVC095,-99.99,VWS V12.07,2013-06-18 19:52:00,
2013-06-18 16:04:00,64.2,62.4,29.81,SSE,151,0.0,3.0,94,0.00,,OVC095,-99.99,VWS V12.07,2013-06-18 20:04:00,
2013-06-18 16:13:00,64.7,62.9,29.81,SSE,151,0.0,3.0,94,0.00,,OVC095,-99.99,VWS V12.07,2013-06-18 20:13:00,
2013-06-18 16:23:00,63.7,62.0,29.81,SSE,151,0.0,3.0,94,0.00,,OVC095,-99.99,VWS V12.07,2013-06-18 20:23:00,
2013-06-18 16:34:00,63.4,61.7,29.81,NNE,32,0.0,0.0,94,0.00,,OVC095,-99.99,VWS V12.07,2013-06-18 20:34:00,
2013-06-18 16:43:00,64.0,62.5,29.81,ESE,110,0.0,0.0,95,0.00,,OVC095,-99.99,VWS V12.07,2013-06-18 20:43:00,
2013-06-18 16:53:00,63.4,62.0,29.83,ESE,107,0.0,0.0,95,0.00,,OVC095,-99.99,VWS V12.07,2013-06-18 20:53:00,
2013-06-18 17:04:00,63.1,61.7,29.84,ESE,107,0.0,0.0,95,0.00,,OVC095,-99.99,VWS V12.07,2013-06-18 21:04:00,
2013-06-18 17:13:00,63.1,61.7,29.84,ESE,107,0.0,0.0,95,0.00,,OVC095,-99.99,VWS V12.07,2013-06-18 21:13:00,
2013-06-18 17:23:00,63.1,61.9,29.84,ESE,107,0.0,0.0,96,0.00,,OVC095,-99.99,VWS V12.07,2013-06-18 21:23:00,
2013-06-18 17:34:00,62.9,61.5,29.83,SSW,206,0.0,1.0,95,0.00,,OVC095,-99.99,VWS V12.07,2013-06-18 21:34:00,
2013-06-18 17:43:00,62.6,61.2,29.83,SSW,206,0.0,1.0,95,0.00,,OVC095,-99.99,VWS V12.07,2013-06-18 21:43:00,
2013-06-18 17:53:00,62.3,60.8,29.83,SSW,205,0.0,1.0,95,0.00,,OVC095,-99.99,VWS V12.07,2013-06-18 21:53:00,
2013-06-18 18:05:00,62.1,60.7,29.83,SSW,205,0.0,0.0,95,0.00,,OVC095,-99.99,VWS V12.07,2013-06-18 22:05:00,
2013-06-18 18:13:00,62.0,60.6,29.83,South,184,0.0,3.0,95,0.00,,OVC095,-99.99,VWS V12.07,2013-06-18 22:13:00,
2013-06-18 18:23:00,62.4,61.0,29.83,South,185,0.0,3.0,95,0.00,,OVC095,-99.99,VWS V12.07,2013-06-18 22:23:00,
2013-06-18 18:34:00,61.6,60.2,29.84,South,184,0.0,0.0,95,0.00,,OVC095,-99.99,VWS V12.07,2013-06-18 22:34:00,
2013-06-18 18:43:00,61.3,59.9,29.84,South,185,0.0,0.0,95,0.00,,OVC095,-99.99,VWS V12.07,2013-06-18 22:43:00,
2013-06-18 18:53:00,61.8,60.4,29.84,West,278,0.0,1.0,95,0.00,,OVC095,-99.99,VWS V12.07,2013-06-18 22:53:00,
2013-06-18 19:04:00,60.7,59.0,29.84,ESE,107,0.0,1.0,94,0.00,,OVC095,-99.99,VWS V12.07,2013-06-18 23:04:00,
2013-06-18 19:13:00,60.5,58.5,29.84,SSE,161,0.0,3.0,93,0.00,,OVC095,-99.99,VWS V12.07,2013-06-18 23:13:00,
2013-06-18 19:23:00,60.2,58.2,29.84,SSW,213,0.0,3.0,93,0.00,,OVC095,-99.99,VWS V12.07,2013-06-18 23:23:00,
2013-06-18 19:31:00,59.9,57.9,29.84,SW,215,0.0,0.0,93,0.00,,OVC095,-99.99,VWS V12.07,2013-06-18 23:31:00,
2013-06-18 19:43:00,59.8,57.8,29.84,SE,145,0.0,5.0,93,0.00,,OVC095,-99.99,VWS V12.07,2013-06-18 23:43:00,
2013-06-18 19:52:00,59.6,57.6,29.84,SE,145,0.0,5.0,93,0.00,,OVC095,-99.99,VWS V12.07,2013-06-18 23:52:00,
2013-06-18 20:05:00,59.9,58.2,29.84,SE,145,0.0,0.0,94,0.00,,OVC095,-99.99,VWS V12.07,2013-06-19 00:05:00,
2013-06-18 20:13:00,59.9,58.2,29.84,SSE,147,0.0,0.0,94,0.00,,OVC095,-99.99,VWS V12.07,2013-06-19 00:13:00,
2013-06-18 20:23:00,59.8,58.1,29.84,SSE,147,0.0,0.0,94,0.00,,OVC095,-99.99,VWS V12.07,2013-06-19 00:23:00,
2013-06-18 20:34:00,59.3,57.9,29.84,SSE,147,0.0,0.0,95,0.00,,OVC095,-99.99,VWS V12.07,2013-06-19 00:34:00,
2013-06-18 20:43:00,59.3,57.9,29.84,SSE,147,0.0,0.0,95,0.00,,OVC095,-99.99,VWS V12.07,2013-06-19 00:43:00,
2013-06-18 20:53:00,59.6,57.9,29.85,SSE,147,0.0,0.0,94,0.00,,OVC095,-99.99,VWS V12.07,2013-06-19 00:53:00,
2013-06-18 21:04:00,59.0,57.6,29.85,SSE,147,0.0,0.0,95,0.00,,OVC095,-99.99,VWS V12.07,2013-06-19 01:04:00,
2013-06-18 21:12:00,58.9,57.2,29.85,SE,141,0.0,3.0,94,0.00,,OVC095,-99.99,VWS V12.07,2013-06-19 01:12:00,
2013-06-18 21:23:00,59.5,57.5,29.86,South,178,0.0,3.0,93,0.00,,OVC095,-99.99,VWS V12.07,2013-06-19 01:23:00,
2013-06-18 21:34:00,58.9,56.9,29.85,South,178,0.0,0.0,93,0.00,,OVC095,-99.99,VWS V12.07,2013-06-19 01:34:00,
2013-06-18 21:43:00,58.9,56.9,29.85,South,178,0.0,0.0,93,0.00,,OVC095,-99.99,VWS V12.07,2013-06-19 01:43:00,
2013-06-18 21:53:00,58.9,56.9,29.86,South,178,0.0,0.0,93,0.00,,OVC095,-99.99,VWS V12.07,2013-06-19 01:53:00,
2013-06-18 22:05:00,58.9,56.6,29.86,South,178,0.0,0.0,92,0.00,,OVC095,-99.99,VWS V12.07,2013-06-19 02:05:00,
2013-06-18 22:13:00,59.0,56.7,29.86,South,178,0.0,0.0,92,0.00,,OVC095,-99.99,VWS V12.07,2013-06-19 02:13:00,
2013-06-18 22:23:00,59.5,57.2,29.86,South,178,0.0,0.0,92,0.00,,OVC095,-99.99,VWS V12.07,2013-06-19 02:23:00,
2013-06-18 22:35:00,59.0,56.7,29.86,South,178,0.0,0.0,92,0.00,,OVC095,-99.99,VWS V12.07,2013-06-19 02:35:00,
2013-06-18 22:42:00,59.0,56.7,29.86,South,179,0.0,0.0,92,0.00,,OVC095,-99.99,VWS V12.07,2013-06-19 02:42:00,
2013-06-18 22:53:00,59.0,56.7,29.86,South,179,0.0,0.0,92,0.00,,OVC095,-99.99,VWS V12.07,2013-06-19 02:53:00,
2013-06-18 23:04:00,59.6,57.0,29.86,South,179,0.0,0.0,91,0.00,,OVC095,-99.99,VWS V12.07,2013-06-19 03:04:00,
2013-06-18 23:13:00,59.0,56.4,29.86,South,179,0.0,0.0,91,0.00,,OVC095,-99.99,VWS V12.07,2013-06-19 03:13:00,
2013-06-18 23:23:00,59.0,56.1,29.86,South,179,0.0,1.0,90,0.00,,OVC095,-99.99,VWS V12.07,2013-06-19 03:23:00,
2013-06-18 23:34:00,59.5,56.6,29.87,South,179,0.0,0.0,90,0.00,,OVC095,-99.99,VWS V12.07,2013-06-19 03:34:00,
2013-06-18 23:43:00,59.0,56.1,29.87,South,179,0.0,0.0,90,0.00,,OVC095,-99.99,VWS V12.07,2013-06-19 03:43:00,
2013-06-18 23:53:00,59.0,56.1,29.87,South,178,0.0,1.0,90,0.00,,OVC095,-99.99,VWS V12.07,2013-06-19 03:53:00,